Temp
16 16 17 17 17 18 18 18 18 17 17 17 17 17 17 17 16 17 17 17 18 18 19 20 20 20 20 20 18 17 18 18 18 15 18 25 27 27 27 27 26 25 25 26 25 25 24 24 24 24 24 25 25 24 24 23 23 24 24 23 23 23 24 24 25 25 25 25 25 25 26 25 25 25 25 25 25 24 24 24 24 24 24 24 23 23 22 22
16 16 17 17 17 17 18 18 18 18 17 17 17 17 17 17 17 17 17 17 18 19 20 20 21 21 20 20 18 17 17 16 15 14 21 27 27 27 26 26 26 25 25 25 25 25 24 24 24 24 25 25 25 24 24 23 23 24 24 23 24 24 24 24 24 24 25 25 25 25 25 26 25 25 25 25 24 24 24 23 23 23 23 23 23 23 22 22
16 16 17 17 17 18 18 18 18 18 18 17 17 17 17 17 17 17 17 18 19 20 20 21 21 20 20 19 18 18 16 14 18 22 26 28 27 27 26 25 25 25 26 26 26 26 26 25 25 25 25 25 25 24 23 23 23 24 23 24 25 24 24 24 24 24 24 25 25 25 25 26 25 25 26 24 24 24 23 22 23 22 22 22 22 22 22 22
16 16 17 18 18 18 18 18 18 18 19 18 18 18 18 18 18 18 18 19 20 20 20 20 20 20 19 18 18 18 15 17 25 28 27 27 27 27 26 25 25 25 26 27 27 26 26 26 25 25 25 25 25 23 23 23 23 23 23 24 24 23 24 24 23 24 24 25 25 25 26 25 25 26 25 24 24 24 23 23 23 22 22 22 22 22 22 22
16 17 17 18 18 19 19 19 19 19 19 19 18 18 18 19 18 19 19 19 20 20 20 20 20 19 19 18 18 17 17 23 27 27 27 27 27 26 26 25 25 26 26 26 26 26 26 26 25 26 25 25 24 23 23 23 24 23 23 23 23 22 23 24 23 24 25 25 25 26 26 25 25 26 25 25 25 24 24 24 24 23 23 22 22 22 22 22
17 17 18 18 19 19 19 19 19 19 19 19 19 19 19 19 19 19 19 19 20 20 20 20 19 19 19 18 17 16 20 26 27 27 28 27 27 27 26 26 26 26 25 26 26 26 26 26 26 26 26 26 25 24 24 23 24 24 23 23 22 22 23 23 23 24 24 25 26 25 25 24 25 26 24 25 25 25 25 25 24 23 23 23 23 22 22 22
17 18 18 18 19 19 19 20 20 20 19 19 19 19 20 20 20 20 20 20 20 20 20 20 19 19 19 18 17 17 21 26 26 27 28 27 28 27 26 26 26 25 26 26 25 26 26 26 26 26 26 26 25 25 24 23 24 24 23 23 22 22 22 22 23 24 24 25 25 24 25 24 26 26 24 25 25 25 25 25 24 24 23 23 23 22 22 22
18 18 18 19 19 20 20 20 20 20 20 20 20 20 20 20 20 20 20 20 20 20 19 20 19 19 18 17 18 20 23 26 26 27 28 27 27 27 26 26 25 25 25 25 25 26 26 26 26 26 26 26 26 25 24 23 24 24 23 22 22 22 22 23 23 23 23 24 24 25 25 24 24 25 25 25 25 25 25 24 24 24 23 23 23 23 22 22
18 18 19 19 20 20 20 20 20 20 20 21 21 21 21 20 20 20 20 20 20 20 19 19 19 18 18 17 18 23 26 26 26 27 27 27 27 27 27 26 25 25 24 25 26 26 27 27 26 27 27 27 26 24 24 24 24 24 23 22 22 22 22 23 23 22 23 23 24 26 26 25 24 24 25 25 24 25 25 24 24 24 23 23 23 23 23 22
18 19 19 19 20 20 21 21 21 21 21 21 21 21 21 21 21 20 20 20 20 19 19 19 19 18 18 17 20 24 26 26 26 27 27 27 27 27 26 26 25 25 24 24 25 25 27 27 27 27 27 27 26 24 25 25 24 23 22 22 22 22 22 23 22 22 23 23 24 26 25 25 25 25 26 25 24 25 25 24 24 24 23 23 23 23 23 23
19 19 19 20 20 21 21 21 21 21 21 21 21 21 21 21 21 20 20 20 20 19 19 18 18 18 17 18 22 26 26 26 27 26 26 26 27 27 26 26 25 25 24 24 24 26 27 27 26 27 27 27 25 23 24 24 23 22 22 22 22 22 22 22 22 22 24 24 23 24 25 25 25 25 26 24 25 25 24 24 24 24 24 24 24 23 23 23
19 19 19 20 21 21 21 21 22 22 21 21 21 21 21 21 21 20 20 20 19 19 19 18 18 17 17 18 22 26 27 26 27 26 26 26 26 27 26 26 26 25 25 24 24 26 27 26 27 27 27 27 24 23 23 23 23 23 23 23 22 22 22 22 22 22 24 23 22 23 24 25 25 25 25 24 25 25 24 24 24 24 24 24 24 24 23 23
19 19 19 20 21 21 22 22 22 22 22 22 21 21 21 21 20 20 20 19 19 19 18 17 17 16 17 21 25 27 27 27 27 27 27 26 26 26 26 26 25 25 25 25 25 26 26 26 27 27 28 26 24 24 24 24 24 23 24 23 22 23 22 22 22 23 24 22 22 23 23 23 25 25 24 24 25 25 24 24 24 24 24 24 24 24 24 24
19 19 19 20 21 22 22 22 22 22 22 22 22 22 21 20 20 20 19 19 19 19 18 17 17 16 18 24 27 27 27 27 27 27 27 27 26 26 26 26 25 25 25 25 26 26 27 27 27 27 27 26 24 24 24 24 24 24 24 24 24 22 22 22 22 23 24 22 22 24 23 23 25 24 24 24 25 25 24 24 24 24 24 24 24 24 24 24
19 19 20 20 21 22 22 22 23 23 23 22 22 22 21 21 20 20 19 19 18 18 17 16 16 16 20 25 27 27 27 27 28 28 28 27 27 26 26 26 25 25 25 25 26 27 27 27 27 27 26 25 25 24 24 24 24 24 23 22 23 22 22 23 23 23 24 23 23 24 23 23 25 25 24 24 25 25 24 24 25 24 24 24 24 24 24 24
19 20 20 20 21 22 22 23 23 23 23 22 22 22 22 21 20 19 19 19 18 18 17 16 16 16 22 26 27 27 27 27 28 28 28 28 27 27 27 26 26 25 25 25 26 27 27 27 27 26 25 25 25 24 24 23 23 24 23 21 22 22 22 22 23 23 24 23 23 24 24 24 25 25 25 24 24 25 25 25 25 24 25 24 24 25 24 24
20 20 20 21 22 22 23 23 23 23 23 23 22 22 21 20 19 19 18 18 18 18 17 16 15 17 23 27 27 27 27 27 28 28 28 28 28 28 27 26 25 25 25 26 26 26 27 27 27 26 25 25 25 25 24 21 21 23 23 22 22 23 22 22 23 23 23 24 24 24 24 24 25 25 25 24 24 25 25 25 25 25 25 25 25 25 25 25
20 20 21 21 22 23 23 23 23 24 23 23 22 21 21 20 18 18 18 18 17 17 17 17 16 19 25 27 27 27 26 27 28 28 28 28 27 27 27 26 26 26 26 26 26 27 27 27 26 25 25 25 25 25 23 22 22 22 22 22 22 23 23 22 23 23 24 24 24 24 24 24 24 25 25 25 25 25 25 25 25 25 25 25 25 25 25 25
20 21 21 21 22 23 23 23 24 24 24 23 22 20 20 19 18 18 16 16 19 22 22 21 21 23 25 26 26 26 27 27 28 28 28 28 27 26 27 27 27 27 27 27 27 27 27 26 25 24 24 24 25 26 25 25 25 24 23 23 22 22 22 23 23 23 23 24 24 24 24 24 24 25 25 25 25 25 25 25 25 25 25 25 25 25 25 25
21 21 22 22 23 23 24 24 24 24 24 23 22 20 21 21 21 21 18 18 21 23 25 25 24 24 25 26 26 26 28 28 28 28 28 28 27 26 27 27 27 27 27 27 27 27 27 26 24 23 24 24 25 26 26 26 26 25 24 23 23 22 22 23 24 22 23 24 24 24 24 24 24 24 25 25 25 25 25 25 25 25 25 25 25 25 25 25
21 22 22 22 23 23 24 24 24 24 24 24 23 22 22 22 23 24 22 22 22 20 23 25 23 24 25 25 25 26 27 27 27 28 28 28 28 27 27 27 27 27 26 26 26 27 27 26 25 25 25 25 26 26 26 26 26 25 24 23 22 22 22 23 23 22 23 24 23 24 24 24 24 24 24 24 25 25 25 25 25 25 25 25 25 26 25 25
21 22 22 23 23 24 24 24 24 24 24 24 24 22 22 22 23 23 23 24 23 20 22 23 22 23 24 24 25 25 26 27 28 28 28 28 28 27 27 27 27 27 26 26 26 26 26 25 26 27 27 25 25 26 26 26 26 25 24 23 22 22 23 22 23 23 23 24 23 24 24 24 24 24 24 24 25 25 25 25 26 25 25 25 25 26 26 25
21 22 23 23 23 24 24 25 24 24 24 24 23 22 22 23 23 23 22 23 23 23 23 24 24 25 25 25 25 25 26 27 28 28 28 28 28 27 27 27 27 26 26 27 26 25 24 25 27 27 27 26 25 25 25 26 26 25 24 22 22 22 23 22 22 23 23 23 23 24 24 24 24 24 24 24 24 24 25 25 25 25 25 25 25 26 26 26
22 22 23 23 23 24 25 25 25 24 24 24 24 23 23 24 23 23 23 23 23 24 24 24 25 25 26 27 26 26 27 27 27 28 28 28 28 26 27 27 26 26 27 27 26 25 24 26 26 26 27 26 26 26 26 25 25 25 25 23 23 23 23 23 22 22 23 23 23 24 22 22 24 24 24 24 24 24 24 24 25 25 25 25 25 26 26 26
22 22 23 23 24 24 24 25 25 24 24 24 24 24 24 24 24 23 24 23 23 25 25 25 25 26 27 28 27 27 28 27 28 28 27 28 28 27 27 27 26 27 26 26 26 26 26 26 26 27 27 26 26 26 26 26 24 24 25 25 24 24 24 23 22 22 22 22 23 24 21 21 23 24 24 24 23 24 24 24 25 25 24 25 25 26 26 26
22 22 23 24 24 24 25 25 25 24 24 25 25 25 24 25 24 23 24 23 23 25 27 27 26 27 28 27 27 27 27 28 28 27 28 29 29 28 27 26 26 27 27 26 26 26 27 27 27 28 27 27 27 26 27 27 24 22 25 26 25 25 23 22 22 22 21 21 23 24 21 21 22 23 24 24 23 24 24 24 24 24 24 24 25 26 25 26
22 22 23 24 24 24 25 25 24 23 25 25 25 25 25 25 24 24 24 22 22 25 26 27 27 28 28 27 27 27 26 27 28 27 28 28 28 28 27 26 26 26 27 26 24 25 27 27 27 28 27 26 26 25 27 28 25 23 26 26 25 25 23 22 23 22 22 22 22 23 22 21 21 23 25 24 23 24 24 24 24 24 24 24 25 25 25 26
22 23 23 24 24 24 24 24 23 23 25 25 25 25 25 25 24 25 23 21 22 25 26 27 27 28 28 27 27 28 26 27 28 27 27 28 28 28 27 27 27 27 28 26 24 25 27 28 28 28 27 26 26 27 27 28 27 25 26 26 24 25 24 23 23 22 22 22 21 21 22 21 21 22 25 25 24 23 24 24 24 24 24 24 25 25 26 26
22 23 23 24 24 24 24 23 23 24 25 26 25 25 25 24 24 25 22 21 24 26 27 28 28 28 28 27 27 28 27 28 28 28 28 28 28 28 27 27 27 27 27 26 26 26 27 28 29 28 27 27 27 28 28 28 27 25 25 25 24 24 23 22 22 22 22 21 20 21 22 21 21 22 23 23 23 24 25 25 25 25 24 24 24 25 25 25
22 23 23 24 24 24 23 23 25 26 26 25 25 25 25 24 24 23 21 21 24 26 27 28 28 27 27 28 28 27 27 28 28 28 28 28 28 28 27 27 27 28 27 26 26 27 27 27 27 28 28 28 28 27 27 27 27 25 25 24 23 22 21 21 21 21 21 21 21 21 22 21 21 22 22 23 24 25 26 25 25 25 25 24 25 25 25 25
22 23 24 24 24 24 23 24 26 26 26 25 25 25 25 24 24 21 21 23 25 25 27 28 28 28 27 28 28 27 27 28 28 28 28 28 28 28 27 26 27 27 26 26 26 27 27 27 27 28 28 28 28 26 26 26 26 25 25 23 22 21 21 21 21 21 21 21 21 22 22 21 20 22 23 24 26 27 27 26 25 25 25 25 25 25 25 25
23 23 24 25 25 24 24 26 27 26 25 25 24 24 25 24 22 21 22 24 24 25 27 27 27 28 27 27 27 27 27 27 27 28 28 27 27 27 27 27 27 25 23 23 25 26 28 29 28 28 28 28 27 24 24 25 26 25 24 23 22 20 20 21 20 21 21 21 22 22 22 21 21 23 25 26 26 27 27 27 26 26 25 25 26 25 24 25
23 24 25 25 26 25 26 27 27 26 26 25 23 25 25 23 21 22 23 24 24 26 27 27 27 27 27 27 27 27 27 27 27 27 27 27 27 27 27 26 27 26 23 23 23 23 26 28 29 29 28 28 27 24 22 24 24 24 24 22 21 21 20 21 20 21 21 21 21 22 22 21 21 25 27 28 27 27 27 27 27 27 26 26 26 26 25 25
24 25 25 26 26 27 27 27 27 27 26 24 25 26 24 22 22 22 23 25 25 26 27 26 27 26 26 26 27 27 27 27 27 27 27 27 26 27 27 26 26 27 26 24 23 22 22 24 28 29 28 28 28 26 25 25 24 25 26 25 22 22 21 21 21 21 21 21 21 21 22 21 22 24 27 27 27 27 27 27 27 27 27 27 26 26 25 25
25 25 25 26 27 27 28 27 27 26 24 24 26 26 22 21 22 22 24 26 26 27 27 27 27 26 26 26 27 27 27 26 27 27 27 27 26 26 27 27 26 27 26 24 22 23 22 22 28 29 27 29 29 27 27 26 24 25 27 25 23 24 23 22 21 21 21 20 21 21 21 22 24 26 26 25 26 26 27 27 27 27 27 27 26 26 25 25
25 25 26 27 27 28 28 27 27 26 25 26 26 24 22 23 23 23 25 27 26 26 27 26 26 26 24 25 26 27 27 27 27 27 26 26 26 26 27 27 27 27 27 25 24 23 22 23 28 29 27 29 29 28 28 26 25 25 25 24 24 26 26 22 21 21 21 21 21 21 21 23 24 26 25 25 25 25 26 26 26 26 26 26 26 26 25 25
25 25 25 27 27 27 27 27 27 26 25 26 25 23 24 25 25 25 27 27 26 26 26 25 25 24 23 23 25 27 27 26 26 26 25 25 25 26 27 27 27 27 27 26 25 24 23 23 27 29 29 29 27 28 29 28 27 26 24 25 27 26 27 24 21 21 21 21 21 21 21 22 22 23 24 24 24 24 25 26 26 25 25 26 26 26 26 25
24 24 25 26 27 27 27 26 26 25 25 26 25 23 24 25 25 25 27 27 26 27 27 24 24 25 24 23 24 26 26 25 25 25 24 24 25 26 27 27 27 27 26 26 26 25 24 23 26 28 28 28 28 28 28 28 29 27 26 28 27 24 24 23 22 21 21 21 21 21 21 21 21 21 23 23 23 23 23 25 26 25 25 25 26 26 26 26
22 24 26 26 26 26 26 26 25 26 26 25 25 24 24 25 25 26 26 27 26 26 27 25 25 25 25 24 24 26 26 25 25 25 24 24 24 26 27 27 28 28 26 27 26 26 25 23 24 27 28 27 28 27 25 26 29 29 28 28 27 25 23 23 23 22 22 21 21 21 21 21 21 22 22 23 22 22 22 23 25 25 25 25 25 26 26 25
21 24 26 25 25 25 25 25 25 26 26 25 24 25 24 25 27 27 27 27 27 27 27 26 26 25 26 26 25 25 26 25 25 25 24 25 25 26 27 27 27 28 26 26 26 25 25 23 22 26 28 25 25 26 25 25 27 28 27 26 26 26 25 24 24 23 22 22 21 22 22 21 22 22 22 22 22 22 22 22 24 25 25 25 25 26 26 25
20 25 26 25 25 24 24 25 25 25 25 24 24 24 25 26 27 28 28 27 27 27 27 26 26 26 26 26 25 25 26 26 25 25 25 25 24 25 27 26 26 27 27 27 27 25 25 24 22 23 25 23 25 27 26 26 27 27 26 25 25 25 24 23 22 22 22 22 21 22 22 21 22 22 22 22 22 22 21 22 24 25 25 25 25 25 25 25
22 26 25 25 25 24 24 26 24 23 24 25 25 25 25 26 26 27 28 28 27 27 27 27 27 26 26 26 26 25 26 26 25 25 25 25 25 26 27 26 26 26 27 27 26 25 25 24 22 22 23 24 26 26 25 25 27 27 26 25 25 25 24 23 22 22 22 21 21 22 21 21 22 22 22 22 22 22 21 22 23 24 24 24 24 24 24 24
24 25 25 25 24 23 24 26 24 23 25 26 25 25 26 26 26 27 27 28 27 27 28 27 27 26 26 26 26 26 25 25 25 25 26 26 26 27 27 26 25 26 27 26 25 25 25 23 22 22 23 25 26 26 25 25 26 26 25 24 24 24 24 24 24 24 22 21 21 22 21 21 21 22 22 22 22 22 21 21 21 22 22 23 23 23 23 22
20 21 23 24 24 24 25 26 25 25 25 25 25 26 26 26 27 27 27 27 27 27 28 27 26 26 26 25 25 26 25 24 24 25 25 26 27 27 26 26 26 26 27 26 26 26 24 22 22 22 22 23 24 25 25 25 25 25 24 23 22 22 23 24 24 24 23 21 21 22 21 21 21 22 22 22 22 22 21 21 21 21 21 21 22 22 21 21
19 20 22 23 24 24 24 24 24 24 24 23 24 25 26 26 27 27 27 27 27 26 27 27 26 26 26 25 25 25 24 24 25 25 25 26 27 27 26 26 26 26 26 26 26 26 24 22 22 22 21 21 21 22 22 23 23 24 23 22 22 22 22 23 23 23 22 20 20 21 21 20 22 22 22 22 22 22 21 21 21 21 21 21 21 21 21 21
21 23 23 23 24 23 23 23 22 23 23 23 24 25 25 27 27 26 27 27 27 26 26 26 26 26 26 25 26 26 25 25 25 25 26 26 27 27 26 26 26 26 26 25 25 25 23 21 22 22 21 21 21 21 22 22 22 22 22 21 21 21 21 23 24 23 22 21 20 21 21 21 21 22 21 21 21 22 22 21 21 21 20 20 20 20 20 21
20 22 22 22 23 23 23 22 21 22 22 22 24 25 25 27 27 26 27 27 26 26 26 25 26 26 26 26 26 26 25 25 25 25 25 25 26 27 26 26 27 26 26 25 24 24 23 22 22 22 22 22 22 22 23 22 21 21 21 21 21 20 21 22 23 22 22 21 21 21 21 21 21 21 21 21 21 21 21 21 21 21 20 20 20 20 20 20
19 20 19 19 21 22 22 22 21 21 22 22 23 24 25 26 27 27 27 27 26 26 27 26 25 25 26 26 26 25 25 25 25 25 25 24 25 26 27 27 27 27 27 26 25 25 24 22 21 22 23 23 23 23 23 22 22 21 21 21 21 20 21 21 21 21 22 22 21 21 21 21 21 21 21 21 21 21 21 21 20 20 20 20 19 20 20 20
18 19 18 18 19 21 21 21 20 21 22 22 22 24 24 25 26 27 27 27 26 26 26 26 25 24 24 25 25 25 24 24 24 24 25 25 24 25 26 27 27 26 27 27 26 24 24 23 22 22 23 23 23 23 23 22 22 22 21 21 21 21 21 21 21 21 21 21 21 21 21 21 21 20 20 21 21 21 21 20 20 20 20 20 19 20 20 20
17 17 17 17 19 20 20 20 20 22 23 22 22 24 23 24 26 26 25 27 27 26 25 26 26 24 24 25 26 26 25 25 25 25 25 25 25 25 25 26 26 26 27 27 26 24 23 23 23 22 22 22 23 23 22 23 23 22 21 21 21 21 21 20 20 21 21 21 21 21 21 21 20 20 20 21 21 21 20 20 20 20 20 20 20 20 20 20
14 14 14 16 19 20 20 20 20 22 23 22 22 23 22 24 24 24 25 26 26 26 26 26 25 24 24 25 26 26 25 26 26 26 26 26 26 25 26 25 25 27 27 26 25 26 25 22 22 23 21 21 22 22 22 23 23 22 22 21 21 21 20 20 20 20 20 21 21 21 20 20 20 20 20 20 20 19 19 19 19 19 19 19 19 19 20 19
12 14 13 15 19 19 19 20 20 21 22 22 22 22 22 23 23 22 25 26 25 26 27 25 25 25 25 25 26 26 26 26 27 26 25 25 25 25 25 24 25 26 27 26 24 24 24 23 22 22 21 21 21 22 22 23 23 22 21 21 21 20 20 20 20 20 20 20 20 21 20 20 20 20 20 19 19 18 18 18 18 18 18 19 18 18 19 19
Height
799 798 797 796 795 794 793 792 791 790 789 787 786 785 784 783 782 781 781 780 780 779 779 778 777 776 775 774 773 772 771 769 768 769 767 761 760 762 763 764 765 766 768 770 772 774 775 777 778 778 781 782 783 785 785 785 786 791 800 809 812 812 810 805 804 804 803 803 801 798 795 800 806 804 800 800 804 807 807 808 807 806 805 807 809 811 814 816
799 798 797 795 795 794 793 792 791 789 788 787 786 785 783 782 781 781 780 780 780 779 779 778 777 776 775 774 773 771 770 769 768 766 762 758 760 761 762 764 765 766 768 770 771 773 776 778 778 779 782 785 785 785 788 787 788 796 804 809 808 807 804 799 800 799 798 800 800 798 796 797 802 803 800 806 813 810 812 814 811 812 811 810 811 813 816 816
799 798 796 795 794 793 792 791 790 789 788 786 785 784 783 782 781 780 780 780 779 779 778 778 777 776 775 774 773 772 771 769 767 763 758 757 759 760 762 764 765 767 768 770 771 773 775 776 777 779 784 787 786 787 791 790 792 796 802 809 805 801 800 796 797 797 796 796 797 799 797 798 800 799 800 809 815 813 815 816 814 817 816 814 813 814 817 818
799 797 796 795 794 793 792 790 789 788 787 786 785 784 783 782 781 780 780 780 779 779 778 778 777 776 776 774 773 773 771 770 766 759 758 757 758 760 762 764 765 767 769 770 772 773 774 775 777 779 785 790 788 789 794 792 793 796 800 806 802 800 801 796 796 795 793 793 795 798 798 802 800 797 802 808 816 818 815 811 809 813 813 813 814 815 817 819
798 797 796 795 794 793 791 790 789 788 787 786 784 783 782 781 781 780 780 780 779 779 778 778 777 776 776 774 774 772 772 776 767 757 759 758 758 761 762 764 766 767 769 770 772 773 775 776 778 781 787 792 792 793 795 790 790 797 800 801 799 801 803 797 795 794 792 793 795 798 800 803 800 800 804 805 812 815 808 805 805 806 808 810 812 815 818 819
798 797 795 794 793 792 791 790 789 787 786 785 784 783 782 782 781 780 780 779 779 779 778 778 777 777 776 774 774 772 774 777 765 757 760 759 760 761 763 765 766 768 770 771 771 773 776 777 781 787 789 792 794 795 794 789 789 799 802 798 798 800 802 798 795 794 793 794 797 799 800 799 801 805 805 804 808 806 800 802 804 805 806 808 811 815 818 820
798 796 795 794 793 792 791 790 788 787 786 785 784 783 782 781 781 780 780 779 779 778 778 778 777 777 776 775 774 773 774 771 761 759 761 760 762 762 764 765 766 769 769 770 771 773 777 780 784 787 790 793 793 793 792 790 789 798 802 799 798 798 798 797 795 795 794 795 797 796 798 801 804 806 806 806 806 802 800 801 803 806 808 810 812 815 818 820
798 796 795 794 793 792 791 790 788 787 786 785 784 783 783 782 781 780 779 779 779 778 778 777 778 777 776 775 774 775 774 767 760 761 761 761 763 762 764 765 767 769 769 771 771 773 777 781 785 785 791 792 788 791 791 792 795 797 801 800 799 798 796 795 794 796 796 796 796 795 800 804 804 804 806 808 805 801 801 803 805 808 810 812 814 816 818 820
798 796 795 794 792 791 790 789 788 788 786 785 784 783 782 782 781 780 780 779 778 778 777 777 778 777 776 775 775 776 770 763 760 761 761 762 763 763 764 764 767 768 769 772 771 773 776 781 783 781 788 788 785 791 790 795 800 796 799 800 799 799 796 794 796 798 798 797 796 797 803 804 801 803 808 808 805 802 802 805 807 809 812 814 815 817 818 820
798 796 794 793 792 791 790 789 789 788 786 785 784 783 782 781 781 780 779 779 778 778 777 777 777 777 777 775 777 777 766 760 761 761 761 763 763 764 765 765 766 767 769 771 772 773 773 776 778 775 782 785 785 791 789 794 797 793 798 799 798 799 796 795 797 800 799 798 797 800 805 805 800 805 811 809 804 802 805 809 810 811 814 815 816 817 818 820
797 796 794 793 791 791 789 789 788 787 786 785 784 783 782 781 780 779 779 778 778 778 777 777 777 777 777 776 778 774 763 760 762 761 762 762 763 764 764 765 766 767 769 771 772 772 771 773 772 775 783 784 787 793 792 791 793 794 797 800 801 799 799 798 800 803 799 801 801 801 807 806 803 807 810 807 803 802 807 812 812 813 815 815 816 817 818 820
797 796 794 792 791 790 789 789 788 787 786 784 783 782 781 780 779 778 778 778 778 777 777 777 777 777 776 777 776 768 761 761 762 761 762 762 763 764 764 766 766 767 769 770 772 770 772 772 772 780 783 782 791 798 795 790 792 796 796 803 806 801 805 805 804 804 800 804 804 803 815 816 810 810 807 803 803 804 808 813 814 815 816 816 817 818 819 820
797 795 794 792 791 790 789 788 787 787 785 784 783 781 779 778 777 777 777 777 777 777 777 776 777 776 777 775 768 762 761 761 761 761 762 762 763 764 764 766 766 768 769 770 771 771 773 773 773 779 778 783 794 794 790 790 793 798 797 803 809 810 814 809 805 804 802 807 803 807 827 826 815 811 806 804 804 807 813 815 816 816 816 817 818 819 820 819
797 795 793 792 791 790 789 788 787 786 785 784 782 780 778 776 776 776 776 777 777 777 776 777 777 776 777 771 761 760 762 760 761 761 761 762 762 763 764 765 767 768 769 770 772 772 773 773 774 777 777 782 789 787 791 796 797 801 804 805 809 817 821 810 805 806 807 809 803 808 828 827 816 811 807 805 804 808 815 816 816 817 817 818 818 819 820 819
797 795 793 792 790 789 788 788 786 785 784 783 781 779 776 775 775 775 776 776 776 777 776 776 776 776 776 769 760 760 761 760 760 760 760 762 762 763 763 765 766 767 769 771 772 772 773 774 776 781 782 780 784 793 800 802 801 804 812 816 813 817 822 813 807 807 809 810 805 811 825 824 816 811 807 806 806 809 814 816 816 817 818 818 819 819 820 819
797 795 793 792 790 789 788 787 786 785 783 781 779 777 775 775 775 775 776 775 776 776 776 777 776 777 777 769 761 760 761 760 760 760 760 760 761 763 763 765 766 767 769 770 771 772 772 774 777 780 785 787 791 798 805 811 811 808 814 823 819 818 823 819 811 806 807 810 810 814 822 823 816 810 808 807 808 811 815 817 816 817 818 818 819 819 820 820
796 794 793 791 789 788 788 786 786 784 782 780 778 776 775 775 774 775 775 775 776 776 775 777 776 776 773 763 761 763 761 760 759 759 760 760 761 762 763 765 766 767 768 769 771 772 773 776 779 783 786 791 795 796 808 823 823 816 816 821 820 818 821 822 816 809 806 811 814 815 819 820 814 810 810 809 809 813 816 817 817 817 817 817 818 819 820 821
795 794 792 791 789 788 787 786 784 783 781 779 777 777 776 775 775 776 775 775 776 775 777 776 775 780 777 764 764 765 761 760 759 758 759 760 761 762 763 765 766 767 770 772 773 774 777 779 784 791 794 797 797 797 808 817 815 815 818 820 821 819 820 822 819 811 807 812 817 819 820 819 815 811 811 810 810 813 815 816 816 817 817 817 818 819 820 820
795 793 792 790 789 788 787 785 784 783 781 779 778 777 776 776 775 775 776 776 776 777 778 776 774 781 781 768 763 762 759 759 759 758 759 759 761 763 764 765 766 769 775 780 780 778 780 785 792 800 803 803 799 796 801 801 801 807 812 815 822 823 822 820 816 812 810 816 820 821 822 821 817 814 812 812 811 813 815 815 817 818 817 818 818 818 819 819
794 793 791 790 789 787 786 785 784 782 781 780 778 777 778 780 780 779 776 775 775 774 773 773 772 775 773 766 762 761 759 759 759 759 759 759 760 763 765 766 769 773 779 785 785 780 781 792 800 802 803 799 795 793 794 794 796 803 809 815 819 823 824 818 815 815 812 818 823 820 821 822 819 815 813 812 813 814 816 817 818 818 818 818 817 817 818 818
793 792 791 790 788 787 786 785 784 782 781 780 778 779 783 786 788 786 780 774 770 768 770 769 769 770 767 764 762 761 762 762 760 759 760 760 760 766 771 771 777 783 784 785 785 781 784 796 800 797 794 792 791 792 792 796 799 803 810 817 821 822 823 817 816 816 811 818 824 819 821 824 820 817 814 812 814 815 815 817 817 817 817 817 816 816 816 816
793 792 790 789 788 787 785 784 783 782 781 780 779 781 784 785 785 784 783 782 772 766 769 768 768 769 763 761 762 761 767 769 765 760 759 760 762 770 775 776 782 787 785 785 787 790 794 798 796 790 787 788 792 793 795 799 802 806 812 819 823 821 821 820 817 816 813 817 824 821 823 825 819 817 815 813 814 813 812 812 813 814 816 816 815 814 814 816
793 791 790 789 787 786 785 784 783 782 781 780 780 781 782 782 781 780 782 787 780 768 767 769 768 768 764 762 761 762 768 771 770 765 758 761 766 770 775 779 784 787 786 787 791 798 802 797 790 787 786 789 795 797 799 802 802 808 814 819 824 820 820 824 822 819 815 817 823 822 824 825 820 818 816 813 812 812 811 811 810 811 812 813 812 811 812 814
792 790 789 788 787 786 784 783 782 782 781 780 781 781 781 780 780 780 781 787 786 773 766 766 765 765 764 760 758 763 768 768 769 765 758 762 769 771 774 779 784 788 788 788 790 797 799 792 786 787 788 791 797 799 800 804 806 807 809 814 819 817 816 819 821 821 819 820 820 821 832 832 823 823 820 813 813 812 811 811 811 810 809 809 809 810 810 811
791 790 788 787 787 785 784 783 781 782 781 780 780 780 780 779 778 778 781 790 792 777 766 765 765 763 759 758 759 760 765 765 763 761 757 759 767 773 776 777 782 789 789 789 791 794 793 786 784 788 791 791 796 799 798 801 808 809 804 804 807 810 814 819 822 823 829 834 823 822 845 843 824 824 823 816 816 815 812 812 811 810 809 809 810 810 809 809
790 789 787 786 786 784 784 782 781 782 780 779 779 779 779 778 777 777 783 797 796 781 772 769 769 766 759 761 760 759 770 770 759 756 757 758 760 767 778 780 781 786 786 786 790 790 788 783 782 787 790 792 795 797 795 795 808 815 801 794 800 806 815 823 822 825 836 840 824 820 841 845 830 823 819 815 818 816 813 813 810 809 809 808 808 807 808 808
789 787 786 786 784 784 783 781 782 782 781 780 779 779 778 777 777 775 787 808 805 785 779 774 770 766 761 762 759 764 781 775 759 758 757 758 759 761 776 784 783 784 780 785 794 790 784 783 784 785 789 795 797 797 793 790 805 813 795 790 800 804 814 821 819 825 831 830 829 825 832 844 839 822 811 813 820 818 814 813 809 807 807 807 805 805 805 806
788 787 785 784 783 783 782 782 782 780 780 780 777 778 777 775 776 777 796 822 809 782 778 773 764 761 759 760 760 767 775 769 769 769 755 756 762 763 777 782 781 782 777 786 799 790 782 783 784 784 790 796 793 789 787 786 798 803 791 792 799 802 812 818 819 826 826 829 840 835 831 844 840 818 809 811 819 820 813 809 808 805 805 805 804 803 802 803
787 786 784 783 783 782 781 781 781 779 779 778 777 778 775 774 776 783 806 822 801 778 774 770 764 763 763 764 765 767 767 766 773 769 756 760 762 763 776 777 777 782 778 783 791 785 779 777 776 780 788 789 784 782 781 784 794 795 791 796 802 808 817 823 827 829 830 838 846 838 834 846 839 819 818 820 819 816 806 802 804 801 801 802 802 801 800 801
786 785 783 783 781 781 780 780 778 778 778 776 777 776 773 777 782 800 821 817 796 782 774 769 769 768 769 771 773 771 770 769 768 765 763 766 763 763 770 770 773 779 781 783 785 780 775 772 772 776 778 776 776 780 781 783 789 790 795 805 813 822 826 830 833 833 840 845 840 831 828 842 841 821 815 815 803 795 794 799 802 799 799 799 799 800 799 800
785 784 783 781 780 780 780 778 777 777 776 776 776 773 776 784 792 814 825 805 792 786 775 773 773 769 771 776 777 774 773 772 768 769 771 771 771 772 774 775 778 783 787 787 783 779 775 774 775 769 765 769 776 784 784 782 785 788 798 810 821 835 838 838 838 839 848 846 833 826 824 840 847 819 803 800 786 781 788 793 797 797 798 797 797 798 797 797
784 782 781 780 780 779 779 778 775 776 775 774 775 775 782 796 805 817 813 796 794 790 778 778 776 772 774 777 778 775 775 776 771 772 776 777 779 779 780 783 784 790 799 795 788 783 775 772 772 765 762 766 777 793 797 790 789 794 803 811 825 847 851 850 850 847 847 841 829 826 826 838 838 808 793 793 785 783 784 783 786 790 793 794 794 795 795 795
782 780 780 779 778 777 777 777 775 775 774 772 776 778 787 806 815 813 806 798 794 784 777 778 775 775 777 777 779 776 776 777 773 774 777 779 783 781 780 782 780 787 797 797 794 791 781 772 767 767 767 764 771 793 805 801 798 800 804 808 822 845 854 858 860 851 844 838 828 826 829 835 825 799 787 785 780 778 776 776 779 781 785 789 790 792 793 794
780 779 778 777 776 776 775 776 774 774 773 772 778 783 794 812 815 806 802 797 789 780 777 778 776 777 779 779 779 775 777 779 774 776 778 780 785 785 782 782 780 781 786 793 795 795 797 790 773 768 770 766 766 776 782 787 797 797 792 796 807 818 829 841 848 844 842 841 834 832 833 829 817 799 786 780 776 773 771 772 774 776 780 783 786 790 792 793
778 777 777 775 775 775 774 775 773 773 773 774 781 791 804 815 812 806 800 791 785 783 779 777 777 780 781 780 778 775 777 780 776 777 781 784 788 787 785 782 780 780 784 794 796 793 801 795 772 764 766 763 765 766 763 777 799 798 788 795 801 795 798 817 830 829 835 844 842 837 828 812 800 790 783 780 778 774 771 771 774 777 779 781 785 788 790 792
777 775 775 774 774 774 773 773 773 773 773 777 789 800 806 805 802 801 793 784 785 785 781 781 781 785 787 784 781 778 775 777 779 781 784 788 788 786 785 780 777 778 781 789 793 793 799 790 769 764 765 760 762 764 763 774 791 796 795 797 792 783 785 808 827 826 829 840 838 832 822 806 797 791 784 784 783 780 778 775 776 778 779 781 784 785 787 789
775 774 774 773 773 773 772 772 773 773 774 782 796 803 801 795 791 791 785 780 783 782 784 789 788 789 794 791 786 782 777 778 782 786 789 791 789 784 783 779 775 776 775 779 786 789 795 791 773 767 768 761 758 762 764 766 772 788 797 788 781 784 785 796 822 833 835 837 831 828 826 816 811 806 794 791 792 790 786 781 780 781 781 782 783 782 784 785
774 774 774 773 773 772 772 772 772 773 777 788 798 800 797 792 787 784 780 779 782 781 785 793 790 788 793 795 790 783 781 783 785 788 791 792 789 783 781 780 775 774 772 774 781 785 791 794 780 769 772 765 757 764 773 770 764 772 780 774 777 795 797 798 816 830 836 839 831 826 827 823 822 819 807 802 802 798 794 787 783 784 784 783 783 783 783 784
774 775 776 774 773 772 772 773 773 775 783 794 800 797 794 790 784 780 778 778 781 783 786 790 788 787 790 792 791 786 784 786 787 790 792 793 791 782 778 780 776 774 772 772 780 784 788 797 789 773 770 769 766 772 782 781 770 766 771 773 777 787 793 797 803 809 820 834 833 824 822 823 822 818 812 808 804 800 797 792 786 784 784 783 783 784 784 785
774 778 780 774 773 773 772 773 775 780 789 796 798 795 792 788 781 775 774 776 779 780 784 788 787 788 788 787 789 787 785 786 787 791 792 791 790 782 776 778 777 775 774 773 778 782 786 798 799 782 771 778 783 781 783 785 778 775 779 781 782 783 785 791 796 799 804 817 826 821 819 824 819 811 810 807 801 798 796 792 787 784 783 783 783 783 784 785
776 782 781 774 773 774 773 777 783 788 792 795 796 793 789 785 780 776 772 773 776 775 777 782 784 786 787 786 787 786 785 787 788 790 791 790 791 787 778 775 777 776 775 776 779 782 787 796 801 794 785 789 790 780 777 778 776 778 783 784 786 786 787 795 805 805 800 805 815 815 817 824 817 807 806 805 799 796 793 788 787 785 784 785 784 783 783 784
779 785 781 774 774 774 775 784 790 792 792 792 790 788 785 781 780 778 773 772 776 773 773 777 781 784 786 785 786 786 786 789 790 790 791 790 790 787 777 773 775 775 775 781 783 781 785 794 800 800 795 791 786 778 779 779 775 777 784 788 791 787 784 793 802 802 803 809 814 813 815 821 815 805 804 802 797 795 792 788 787 786 785 785 784 782 782 782
783 784 777 774 775 774 779 789 792 792 791 787 785 783 781 781 780 779 776 775 777 775 775 778 780 782 784 784 785 786 787 790 793 791 790 790 786 780 776 773 774 775 776 782 786 781 785 798 802 801 796 788 781 778 779 778 778 784 789 790 794 793 788 788 790 790 798 811 814 812 819 823 814 805 803 800 797 795 793 791 790 789 787 785 784 783 784 785
788 785 778 775 774 774 783 792 793 793 791 787 786 783 779 779 779 778 778 777 777 777 778 780 780 780 782 783 784 786 789 792 794 791 789 790 784 776 775 774 772 775 776 779 782 779 789 805 807 807 810 802 793 791 787 784 786 791 796 796 796 798 793 789 788 787 796 815 818 811 822 829 815 806 804 800 799 797 795 794 792 791 791 788 787 786 787 788
788 786 782 777 772 775 784 789 791 794 794 792 791 787 782 780 776 775 777 777 776 777 779 780 780 779 781 783 785 786 788 789 792 792 789 789 784 776 775 775 773 774 775 776 776 776 793 810 808 812 826 827 821 817 809 803 800 797 800 802 800 800 797 791 788 786 796 821 826 816 824 829 815 808 808 803 801 801 798 796 794 793 793 791 790 789 789 789
790 788 787 781 776 778 785 787 789 793 794 796 793 787 785 782 777 774 775 776 776 776 778 780 779 780 783 785 786 788 789 788 789 791 791 790 786 780 777 776 774 775 775 776 776 779 798 812 807 808 822 827 825 821 811 807 810 810 809 807 803 803 801 793 786 786 797 819 830 823 822 824 819 815 813 808 805 803 801 800 798 796 795 794 794 794 793 792
793 794 794 791 787 786 789 790 793 794 794 795 793 787 784 783 780 777 775 776 777 775 778 781 780 782 785 787 789 792 792 791 790 791 793 793 788 782 779 776 775 775 775 777 778 783 799 812 811 808 813 815 816 813 807 806 812 816 815 811 807 805 803 798 795 796 798 807 822 824 818 821 823 818 814 812 808 804 803 803 801 799 798 798 798 798 798 798
795 796 796 796 795 794 793 793 795 795 793 794 793 788 785 783 782 781 777 776 776 775 779 785 785 784 785 785 788 793 794 795 795 795 795 794 791 786 782 778 777 775 775 778 780 784 796 809 812 809 808 809 809 807 806 807 810 813 813 813 812 810 808 808 810 810 804 802 813 819 817 820 823 818 814 812 808 805 804 803 801 800 801 802 803 801 800 800
797 798 796 796 797 797 795 793 794 794 792 793 792 788 787 786 782 780 778 777 779 778 780 786 787 786 786 784 786 793 796 797 799 798 795 794 794 792 789 786 782 777 777 780 782 786 795 805 809 808 806 807 807 806 807 807 808 811 813 812 812 812 812 812 812 810 807 808 813 816 818 821 820 817 814 810 805 804 803 802 802 802 803 805 806 804 802 801
802 802 800 799 797 795 794 793 793 792 790 792 792 789 788 787 783 781 778 778 782 782 780 784 786 786 787 785 784 789 791 790 793 794 793 794 795 793 792 790 786 782 780 782 786 787 794 805 807 806 809 812 809 808 809 808 808 811 814 813 812 813 814 816 816 813 812 816 816 816 821 823 818 814 812 808 806 806 806 805 805 804 805 806 806 806 804 803
805 805 804 803 799 795 794 793 794 794 792 793 793 790 790 788 785 785 780 775 778 779 778 781 784 784 785 785 784 786 786 784 786 785 785 788 789 788 788 788 786 785 784 786 788 786 792 806 808 807 816 820 813 812 813 807 804 808 813 815 816 817 819 821 821 819 818 819 820 819 823 824 818 813 812 811 811 812 812 810 808 807 807 807 808 808 807 805
806 805 804 805 801 797 796 795 794 795 794 793 792 791 790 787 785 787 784 776 773 773 773 776 779 781 785 787 784 781 780 779 780 780 780 782 783 783 784 785 784 784 785 787 791 792 795 803 806 810 819 822 817 816 814 808 810 816 818 818 818 820 822 822 821 820 819 820 821 821 822 821 816 814 815 817 817 817 817 815 812 811 809 809 810 810 809 808
Wind_Speed
13 12 11 11 11 11 11 11 11 12 13 13 13 12 11 10 9 8 9 9 9 9 10 10 10 10 10 11 12 13 15 16 15 11 7 9 8 7 5 9 16 16 17 15 14 13 8 5 6 7 6 3 1 1 2 1 1 2 2 2 1 2 2 1 2 1 1 2 4 5 7 11 7 2 3 5 7 6 7 7 6 7 7 10 14 21 22 20
14 12 12 12 11 11 11 11 12 13 13 14 14 13 11 9 8 7 7 8 8 9 9 10 10 10 11 11 12 14 16 17 14 10 10 9 5 7 9 12 17 18 18 16 16 14 8 4 6 6 4 2 1 2 2 0 1 1 2 2 2 3 2 1 1 1 0 2 4 5 7 10 8 6 4 4 4 5 8 6 6 9 9 11 16 20 20 20
15 13 12 12 12 12 12 12 12 13 13 14 13 12 11 9 8 6 6 7 8 8 9 10 10 10 11 11 13 15 15 13 7 6 5 5 6 10 13 16 17 18 16 13 14 13 9 10 10 6 4 0 0 2 2 0 0 1 2 1 3 1 1 1 2 1 1 1 5 6 5 6 6 5 4 5 7 5 7 6 7 9 8 10 12 16 18 18
16 15 13 12 12 12 12 12 12 13 13 13 12 11 10 8 7 6 6 6 7 8 8 9 10 9 11 12 13 14 12 6 2 3 6 8 5 15 16 17 16 17 13 8 11 12 10 12 10 4 3 0 1 2 2 2 2 1 2 2 1 1 1 2 3 1 2 1 6 6 6 7 3 2 5 9 8 2 5 6 8 12 13 12 11 13 15 15
17 15 14 13 12 12 11 12 12 13 12 12 12 10 9 8 7 6 6 6 7 8 8 9 9 10 11 13 12 11 7 2 1 4 6 8 6 18 16 14 14 16 13 9 12 13 11 9 6 3 3 1 1 2 2 4 3 1 1 1 1 2 1 1 4 1 1 4 6 6 7 5 1 3 7 12 7 3 6 7 9 13 14 14 13 13 13 12
18 16 14 13 13 12 12 12 12 13 13 13 12 10 9 8 7 6 6 6 7 7 8 8 9 10 11 11 8 6 4 1 4 5 3 6 7 19 15 13 14 16 14 11 13 13 8 5 4 3 2 0 3 3 2 4 3 1 1 1 1 1 1 1 4 1 0 5 5 4 4 2 4 5 6 6 3 2 5 8 10 11 13 16 16 13 11 10
19 17 15 14 13 12 12 12 13 14 14 14 13 11 10 8 7 7 6 6 6 7 7 8 8 9 10 9 5 4 2 3 6 3 2 4 7 17 16 13 15 17 14 12 13 9 6 5 3 3 2 1 4 4 2 4 3 1 2 3 1 3 4 2 4 2 1 5 3 3 5 4 4 6 4 2 1 3 8 9 11 12 14 16 14 11 10 10
20 18 16 14 13 12 12 12 13 14 15 15 14 13 11 9 8 7 6 5 5 6 6 7 7 7 10 7 2 4 1 4 7 4 2 2 5 15 18 13 14 16 12 11 11 8 7 6 4 3 2 3 3 4 5 5 2 1 2 2 0 3 6 5 5 5 5 4 2 4 6 2 2 4 5 4 2 7 10 11 12 12 13 12 10 10 10 10
21 19 16 14 13 12 12 12 13 14 14 15 15 14 13 10 9 8 6 5 4 4 5 5 5 7 9 5 2 2 1 4 9 5 2 1 3 13 18 14 14 15 10 8 8 9 7 5 6 4 3 4 2 6 6 4 1 1 4 1 2 3 6 7 6 7 5 2 1 6 5 1 2 4 3 2 4 9 10 11 12 11 11 10 9 9 9 9
22 19 16 14 13 12 12 12 13 13 13 13 14 14 13 10 8 8 7 6 4 3 4 4 4 7 7 4 3 2 1 5 10 6 4 3 0 10 17 15 14 15 11 7 8 8 6 6 6 4 4 2 1 4 2 1 2 5 6 4 3 5 5 5 8 6 4 3 4 5 4 3 2 3 2 2 5 10 12 11 11 11 11 9 9 8 9 9
22 19 16 14 13 12 12 12 13 13 13 13 13 13 13 11 9 8 6 5 5 4 4 3 4 5 4 3 4 1 1 5 8 7 5 5 3 5 14 15 15 15 11 7 9 11 7 7 5 2 2 0 3 4 3 3 6 6 6 6 8 8 6 6 8 3 3 4 6 5 5 5 3 1 3 5 8 12 13 12 11 11 9 9 9 7 8 9
22 20 17 14 13 12 12 13 13 13 13 13 14 14 14 12 10 8 6 5 4 4 3 3 4 4 3 2 3 5 2 5 8 6 5 4 3 1 7 13 15 16 13 8 10 16 9 4 4 1 1 1 3 2 2 5 6 4 2 5 7 8 7 6 4 1 1 3 4 6 5 5 2 2 4 7 9 11 12 11 11 10 9 8 8 6 6 7
22 20 17 15 13 13 12 13 13 14 14 14 15 16 16 14 11 8 6 4 4 3 2 2 4 3 2 1 4 4 3 6 7 7 5 3 2 2 3 9 12 14 15 10 6 10 10 4 1 1 2 3 3 2 5 5 3 3 1 3 5 5 5 4 3 1 4 3 4 4 3 3 3 2 4 7 9 12 11 9 10 8 8 7 7 6 5 7
22 21 18 16 14 13 13 13 13 15 15 16 17 18 17 14 10 7 5 4 3 2 2 3 4 2 1 3 4 1 3 6 8 8 5 3 3 2 3 5 10 11 13 12 4 1 6 8 3 2 2 3 4 5 8 4 1 2 1 1 2 3 3 2 2 3 4 2 4 3 3 4 3 2 5 6 10 14 11 9 9 8 8 7 7 7 6 7
22 21 19 17 14 13 13 13 14 15 16 18 18 18 15 10 6 4 3 3 2 1 1 2 3 2 1 3 4 2 6 7 7 7 5 5 5 2 3 6 8 9 11 13 8 1 1 4 2 0 1 5 7 6 5 2 1 1 0 1 2 2 3 0 1 1 2 1 2 2 2 2 2 4 5 5 10 12 12 10 9 9 9 8 7 7 6 6
22 21 20 17 15 15 14 14 15 16 18 19 18 15 11 6 2 1 2 2 2 2 1 2 2 2 2 2 3 3 4 5 8 7 4 6 7 2 3 7 6 6 10 10 7 6 4 2 1 1 3 5 6 5 4 2 2 3 2 1 1 3 4 2 1 2 2 4 2 2 2 2 2 5 5 5 9 10 10 10 9 9 9 8 7 6 6 5
22 21 21 18 17 16 16 16 17 18 20 21 18 13 8 5 2 1 2 1 1 3 1 0 1 2 0 2 3 3 4 6 9 8 5 6 7 5 4 5 4 5 6 6 5 4 2 0 1 1 3 3 3 3 4 2 1 2 2 2 1 2 3 2 2 0 3 4 1 2 2 0 1 6 7 6 9 9 9 9 9 9 8 8 7 6 6 5
22 22 21 19 18 17 17 18 18 20 22 21 17 11 7 6 3 2 2 2 1 1 1 2 0 2 2 3 3 5 9 10 10 5 4 4 7 8 3 2 3 4 2 1 2 1 1 1 2 2 2 2 3 3 3 2 4 4 3 3 2 2 1 2 2 2 4 4 2 2 2 1 0 6 8 6 8 9 9 9 9 8 7 7 7 6 6 6
22 22 21 20 19 17 18 18 19 21 20 18 15 7 6 6 3 2 2 3 1 1 1 2 1 2 2 4 5 8 11 9 7 4 4 4 6 7 3 2 3 3 3 2 1 1 2 3 3 3 3 4 6 3 2 3 6 7 3 4 5 4 1 1 2 2 2 3 4 3 2 2 3 8 9 7 7 8 8 7 6 6 6 6 6 6 6 7
22 21 20 19 18 17 18 18 19 21 17 16 13 4 4 6 4 3 1 1 2 2 2 3 3 1 4 5 6 9 9 5 2 1 2 3 7 7 1 3 5 5 3 2 1 2 3 3 2 3 4 7 8 3 4 3 6 8 5 4 4 3 2 1 3 4 2 0 2 2 2 3 4 7 7 6 6 7 6 6 6 6 6 6 7 7 7 7
22 20 19 19 17 17 18 18 20 18 14 15 12 4 2 2 3 4 4 3 5 6 6 5 4 4 8 8 6 5 4 2 3 3 1 3 6 6 2 3 5 3 2 2 1 3 3 3 4 4 6 8 6 2 3 6 7 6 5 5 3 2 2 2 3 6 3 0 2 2 4 3 2 3 3 4 7 8 8 8 8 8 7 7 8 9 8 6
22 20 19 18 17 17 17 18 19 14 12 14 9 5 2 2 3 4 2 4 6 5 5 5 2 5 9 10 9 1 3 2 6 6 2 4 2 2 1 4 5 1 3 1 2 4 3 2 6 7 7 5 2 1 3 4 5 5 4 5 3 1 3 3 2 3 1 1 1 2 4 3 2 1 1 2 5 6 6 8 8 9 8 7 8 9 8 6
22 20 19 17 16 17 17 19 18 10 12 14 6 4 1 8 7 4 2 2 6 3 2 2 2 4 5 5 6 5 4 1 2 5 3 5 1 2 3 4 4 2 2 3 3 0 1 3 5 5 4 2 3 1 3 1 2 4 4 4 3 4 4 1 2 2 2 2 2 3 3 1 2 2 3 2 2 2 3 5 6 7 9 9 10 9 9 8
22 20 18 17 17 16 16 20 14 8 15 13 3 3 4 14 12 2 3 1 3 5 3 4 3 4 3 2 6 7 2 3 3 2 4 6 3 1 3 3 4 2 1 3 5 4 4 4 2 3 3 4 4 3 4 4 2 2 5 5 4 8 4 3 4 4 3 3 2 4 3 2 2 4 5 3 2 2 2 4 5 6 8 9 8 8 8 9
21 20 18 17 16 15 18 16 6 9 18 9 1 3 9 18 13 3 3 3 2 6 4 2 1 2 3 1 5 5 1 1 4 4 5 7 5 2 0 2 3 0 4 4 4 2 5 5 5 6 2 4 5 5 5 6 3 2 5 7 8 10 6 7 9 6 2 1 2 3 2 3 4 6 8 4 3 5 3 5 7 7 7 7 7 8 8 8
21 19 17 17 16 16 15 6 4 15 16 3 0 6 13 19 9 5 4 5 2 5 4 1 1 2 2 0 2 2 4 2 5 3 5 8 7 4 1 1 1 1 5 4 2 2 3 4 4 6 4 5 5 5 5 7 3 2 4 8 9 9 9 11 12 6 2 3 2 3 3 2 3 7 11 7 6 9 6 6 8 7 7 7 8 9 8 8
20 18 16 16 16 16 10 3 9 15 7 1 4 9 16 17 4 6 3 5 2 2 2 2 1 1 2 0 1 3 1 4 2 2 2 7 4 4 2 2 1 1 3 3 0 2 2 1 1 3 4 6 5 4 6 9 6 3 5 10 12 10 11 12 9 4 2 2 1 2 2 1 3 6 10 9 7 9 9 9 8 7 7 9 9 10 9 10
18 16 15 14 15 16 10 8 12 9 3 5 8 13 19 12 3 5 4 3 2 1 1 3 1 1 2 1 2 2 2 3 2 2 2 4 3 4 2 4 4 4 3 4 2 5 2 2 4 5 4 5 6 4 8 10 5 3 2 9 10 9 8 6 4 3 3 3 1 3 3 1 4 4 5 10 10 11 14 13 11 9 9 9 10 10 10 10
16 15 14 14 14 14 12 11 10 6 7 9 12 19 17 3 5 4 5 2 2 2 1 1 1 2 3 3 1 1 2 1 1 3 2 3 1 3 2 5 5 4 3 3 4 6 3 5 7 6 5 6 6 4 9 10 4 3 10 12 9 10 10 7 4 3 3 2 1 5 6 3 3 3 3 7 10 14 15 13 11 10 9 10 10 10 10 9
14 13 13 13 13 12 12 13 10 7 10 13 19 19 7 4 4 5 3 1 1 2 2 1 2 1 3 3 4 3 1 2 1 1 2 1 2 4 2 3 4 3 2 2 3 6 4 2 4 5 5 6 3 3 4 10 10 10 13 12 10 9 6 5 3 3 3 2 2 7 10 4 3 3 5 8 12 17 15 10 9 10 9 10 9 9 10 9
13 12 13 12 12 11 9 10 10 11 15 19 20 11 2 2 4 6 1 2 1 3 3 2 3 1 2 2 3 2 1 2 2 1 1 1 3 4 1 0 2 2 3 4 3 5 6 1 3 4 5 5 7 5 3 9 13 9 7 7 7 5 4 3 3 3 1 4 3 5 10 6 4 5 4 7 10 11 11 12 14 15 12 11 10 9 9 9
12 11 12 11 12 11 8 9 14 16 18 18 12 4 4 2 3 2 2 3 2 3 2 3 3 1 1 1 1 2 0 2 2 2 3 1 1 0 1 3 2 2 3 3 2 5 5 3 3 4 2 7 7 5 4 3 4 5 7 6 5 3 2 1 1 0 2 4 3 4 8 6 7 7 5 8 9 7 8 12 16 18 15 12 10 9 8 8
12 11 10 10 12 13 11 13 16 15 16 13 6 4 5 4 1 1 2 2 2 3 1 2 2 0 2 1 2 3 1 2 2 2 2 1 1 2 3 3 4 2 1 3 1 4 4 4 4 2 1 4 7 8 4 1 2 6 8 5 4 4 2 1 2 1 2 4 2 6 8 3 4 5 7 9 11 10 10 11 13 16 16 13 11 10 8 8
12 10 9 10 12 12 11 11 11 11 12 8 4 4 6 4 1 2 2 4 4 3 2 2 3 3 3 0 3 2 1 2 0 3 2 2 2 2 4 3 2 3 2 2 1 0 1 3 3 1 0 1 5 8 9 9 7 5 4 4 5 5 4 3 4 2 2 1 1 5 5 3 2 2 5 6 7 7 8 10 10 11 13 12 10 9 8 8
12 8 7 9 10 9 8 8 7 7 6 4 6 5 4 1 3 1 3 4 2 4 4 2 3 5 4 3 3 0 1 2 2 4 4 3 2 1 2 3 1 3 3 1 1 1 2 3 7 4 2 4 4 4 7 11 7 3 1 3 2 4 5 3 3 4 4 2 2 3 3 3 4 3 5 4 5 5 4 8 8 8 10 11 10 10 9 8
10 6 5 6 7 7 6 6 5 3 2 5 6 3 2 3 2 2 3 3 1 3 4 5 5 4 4 4 4 3 1 1 3 4 3 1 1 1 1 3 1 3 3 2 2 0 2 3 6 5 3 4 5 5 6 7 5 2 1 3 4 3 6 5 1 2 4 2 1 2 3 4 2 2 6 8 8 8 3 5 7 8 10 11 11 11 10 9
10 5 3 3 4 4 4 3 1 1 2 6 5 0 3 3 3 4 3 2 2 1 3 4 3 2 3 3 3 5 3 2 2 3 2 1 1 2 2 3 2 1 2 3 1 1 1 3 5 4 3 5 1 7 5 1 3 5 3 5 3 1 4 5 3 3 3 1 3 2 3 4 2 0 7 12 11 10 7 1 4 6 8 11 11 11 11 10
10 4 2 2 5 4 2 1 4 3 5 5 2 2 2 2 3 4 2 2 1 2 4 2 1 1 1 1 3 5 3 1 1 2 1 1 1 1 1 2 2 2 1 3 2 1 2 2 6 2 1 6 5 7 4 4 2 4 5 4 3 2 0 2 3 2 2 1 3 3 3 2 0 2 8 12 12 11 9 5 2 6 8 9 9 9 10 10
6 3 2 2 6 5 2 5 4 4 6 3 1 2 2 2 4 5 3 1 0 2 3 0 1 1 1 1 1 4 2 2 1 2 2 1 0 1 1 1 1 4 4 3 3 0 2 2 4 4 2 4 6 4 3 3 5 3 2 2 2 2 4 2 2 3 3 2 2 3 3 0 1 4 8 10 12 12 10 7 4 5 7 7 7 7 7 8
2 3 0 1 7 4 6 6 3 5 3 0 3 2 2 3 4 5 4 3 1 1 1 2 1 1 2 1 1 2 2 3 2 3 2 1 1 1 1 1 2 4 4 4 3 1 2 3 2 6 5 3 3 1 4 4 0 2 2 1 1 1 2 2 1 1 4 3 2 1 2 1 1 4 7 9 11 11 9 7 5 3 5 6 6 6 6 6
3 4 2 2 7 2 7 4 4 3 2 1 2 3 3 2 3 6 3 3 2 1 2 4 3 1 0 1 2 2 2 3 2 2 1 1 2 1 1 2 1 2 2 4 4 2 1 2 1 4 4 4 1 4 4 4 4 4 2 1 2 2 3 3 1 2 2 3 3 3 2 2 2 4 6 8 8 9 9 4 2 2 1 3 2 2 4 6
3 3 2 3 4 4 6 3 1 2 2 2 2 3 3 2 2 4 4 1 1 1 1 3 2 2 1 0 1 1 2 3 3 2 1 0 1 2 3 3 1 1 3 2 2 1 1 3 2 1 1 1 5 6 5 3 2 6 3 2 1 1 4 5 3 3 1 2 1 3 1 1 3 6 7 7 7 8 9 6 4 5 4 5 4 3 3 4
2 0 2 2 2 5 5 3 3 2 0 4 2 2 2 1 2 2 2 2 1 1 2 2 1 1 2 1 0 2 3 2 3 2 1 1 1 2 5 8 3 2 4 1 1 1 2 3 3 2 4 5 5 6 4 1 4 5 3 3 2 2 1 5 4 3 3 1 0 2 0 1 3 7 6 6 8 8 8 8 7 5 4 4 5 4 5 5
0 3 3 3 3 4 4 1 1 2 4 3 3 4 3 1 3 2 1 2 0 1 2 1 0 1 1 1 2 2 1 2 2 2 1 1 1 3 5 7 3 3 2 1 2 1 1 2 3 3 4 5 5 5 5 4 4 3 2 5 4 4 1 3 2 2 3 0 2 4 1 3 2 5 6 7 9 9 9 8 7 6 5 4 3 4 5 5
1 1 3 5 6 4 4 3 3 2 4 4 3 5 3 1 3 2 2 1 0 2 2 0 0 1 2 3 4 3 2 2 2 2 2 1 3 3 5 7 4 3 2 3 4 4 2 1 2 4 3 0 1 2 3 4 4 2 3 7 7 6 3 2 2 3 2 1 2 4 2 1 2 6 8 8 8 9 9 8 7 7 6 5 4 5 5 5
2 1 2 5 6 5 2 1 4 3 1 2 3 4 2 1 3 1 2 1 1 2 3 1 1 2 4 4 4 4 4 3 2 2 2 2 3 3 4 6 4 5 6 6 5 4 4 2 1 6 6 4 4 5 6 2 2 3 6 9 10 8 4 1 3 3 5 4 3 1 2 3 5 7 7 7 8 8 8 7 7 6 6 6 5 5 5 4
2 1 1 2 3 3 3 3 4 2 0 2 1 3 2 2 3 1 1 1 1 1 3 2 2 2 1 1 3 2 4 5 4 3 1 3 3 4 5 4 5 5 4 5 3 3 6 2 1 5 6 4 5 5 4 3 5 3 6 9 11 11 7 5 3 1 4 6 2 2 2 4 4 5 6 6 7 7 7 6 5 4 5 5 5 5 5 4
2 0 1 1 1 1 1 1 2 2 2 2 2 3 3 1 1 1 1 1 2 2 3 2 4 1 4 4 4 1 2 4 4 3 2 2 2 4 5 4 4 6 3 3 3 3 6 2 3 2 5 2 1 3 3 4 6 5 7 8 10 12 10 8 3 1 2 5 4 5 6 6 4 4 4 5 5 6 5 4 3 3 4 6 4 3 4 3
2 1 1 2 0 3 3 2 2 2 2 2 1 3 2 1 3 3 1 2 3 3 4 3 3 2 4 5 5 3 1 2 1 2 1 1 2 2 3 3 4 5 5 4 3 3 5 1 4 1 5 4 4 3 2 3 6 7 9 9 8 9 11 10 7 4 7 10 9 9 10 7 4 2 3 4 4 4 4 4 4 5 6 7 6 5 5 5
2 1 2 3 2 2 2 1 2 2 3 2 1 3 2 2 3 3 1 3 2 2 3 5 3 1 3 4 6 4 5 8 5 1 3 1 2 0 1 1 2 4 5 3 1 2 3 1 2 2 5 3 3 2 3 4 7 8 8 8 8 8 8 9 7 6 7 10 10 9 8 6 1 3 2 3 4 5 5 7 7 7 8 9 8 8 8 7
2 2 0 2 2 3 2 1 2 3 2 2 0 3 3 3 2 3 3 3 7 5 4 8 8 3 3 4 7 5 7 9 7 5 7 5 2 2 1 2 4 1 5 2 1 3 3 2 1 4 4 2 4 4 5 5 6 8 7 8 7 6 4 5 5 4 3 5 7 6 5 3 1 1 3 5 6 7 7 7 7 7 8 9 9 9 9 8
5 2 1 1 1 3 2 2 2 2 1 2 2 2 3 5 4 2 2 3 3 6 6 10 10 4 4 4 5 7 9 9 8 6 6 5 2 1 0 2 4 3 1 2 2 2 3 4 2 4 3 3 3 4 6 6 5 4 4 3 1 1 2 2 5 6 4 2 3 2 3 3 1 2 5 6 6 6 6 6 6 6 7 9 9 9 9 8
Wind_Direction
5 1 358 355 353 351 349 348 346 342 341 340 341 339 333 328 323 324 324 328 335 338 345 343 344 340 333 329 324 323 325 323 320 313 265 269 265 222 199 173 167 156 157 159 154 148 129 126 168 163 150 173 176 119 135 107 44 54 63 84 124 162 175 236 147 164 249 134 143 165 141 128 138 122 105 70 59 89 85 71 76 54 69 100 117 128 131 134
5 2 358 356 352 350 352 352 351 348 344 340 341 339 336 332 327 329 332 337 340 340 344 342 344 342 336 332 326 327 329 325 316 293 266 275 259 193 175 164 165 160 152 151 152 144 133 144 171 157 129 151 197 139 154 78 44 99 88 93 210 182 174 231 114 39 308 137 132 146 141 132 144 143 123 108 106 109 96 84 86 83 87 102 117 126 131 136
3 3 1 359 354 352 353 351 352 351 346 342 339 339 339 339 337 337 339 339 338 342 348 348 351 348 343 334 330 333 330 329 316 284 321 327 227 184 158 158 166 164 154 152 156 149 150 162 163 147 110 130 244 134 149 279 166 147 108 139 245 177 164 196 103 28 275 155 119 127 133 120 144 145 112 123 123 116 125 132 118 118 125 122 125 129 134 137
2 2 1 1 357 355 354 351 350 349 351 348 344 345 344 345 348 347 348 348 350 356 358 356 356 356 350 339 336 337 331 336 333 303 5 7 189 170 156 159 169 169 157 146 154 144 135 147 154 130 96 251 318 110 159 189 186 155 134 195 246 121 242 171 131 242 300 102 122 123 112 113 141 98 115 133 120 129 184 177 152 147 146 138 139 137 139 140
1 1 1 1 359 357 357 355 350 350 357 358 357 356 353 355 356 1 7 6 7 8 6 1 0 2 352 343 340 334 342 63 311 323 356 4 153 163 156 157 170 176 167 146 150 143 125 128 133 96 82 201 136 93 199 179 152 110 141 151 104 139 239 150 137 207 342 109 107 105 116 137 133 83 146 149 140 197 193 177 158 150 150 145 144 143 143 144
1 2 3 1 0 0 359 357 354 355 0 3 6 4 5 6 5 13 14 12 15 13 9 5 4 5 353 346 343 339 12 140 294 319 348 7 148 162 153 152 161 168 170 151 142 140 128 106 95 117 108 179 189 193 201 160 145 116 135 130 125 174 256 193 145 174 203 121 103 106 129 121 92 122 172 158 133 184 143 142 146 143 145 142 141 144 147 150
2 2 3 2 1 2 359 358 358 359 2 4 8 11 11 9 9 14 11 16 19 12 8 5 8 6 355 349 346 11 51 248 301 314 302 6 151 166 159 157 155 159 168 152 140 136 126 112 111 145 136 228 212 205 167 140 150 110 141 162 203 232 208 189 148 152 91 106 113 124 104 65 93 131 171 193 1 116 123 129 134 135 138 139 141 148 153 157
3 2 2 2 2 1 359 358 0 3 3 4 9 13 13 8 4 2 7 15 14 12 4 3 13 4 358 1 354 15 26 273 323 330 285 5 156 175 173 167 162 168 172 160 152 142 127 129 161 160 143 247 217 167 147 133 177 172 130 147 275 237 182 152 125 124 99 99 122 96 87 79 119 127 152 199 176 122 125 128 131 135 138 144 148 152 157 159
5 3 1 2 2 2 360 359 4 6 5 6 8 7 6 5 360 352 350 354 1 9 359 1 13 7 2 4 61 51 259 324 354 356 324 3 167 182 184 180 173 175 172 177 174 152 142 158 189 186 177 243 201 147 151 132 236 168 95 74 214 178 149 138 114 116 114 84 79 88 76 314 122 110 124 180 167 133 126 132 138 141 144 152 154 158 162 161
5 4 3 3 4 4 0 0 5 6 4 4 2 358 356 354 349 345 338 339 345 345 351 4 9 12 4 3 70 89 242 9 16 21 10 356 23 184 191 192 183 179 169 179 192 169 163 177 185 185 177 242 32 124 154 119 87 105 91 61 94 105 106 111 101 116 129 45 1 93 87 330 48 110 127 167 175 140 129 139 146 146 151 157 157 164 168 167
5 4 4 5 6 3 360 0 3 3 360 357 352 346 342 338 329 326 325 329 332 331 338 353 12 13 1 44 93 169 235 20 12 12 0 342 342 199 201 205 197 187 167 158 203 202 190 175 165 127 154 312 60 72 45 92 97 108 111 74 74 80 60 66 91 131 152 63 1 63 67 340 25 137 190 174 169 145 137 147 153 154 156 160 162 166 172 175
5 4 3 5 5 3 1 359 358 357 355 351 346 339 332 326 316 307 307 315 315 322 326 343 23 9 355 69 160 216 265 345 342 344 331 325 333 262 216 217 213 200 182 165 207 211 201 152 116 91 273 93 111 105 91 114 107 117 123 87 92 83 54 34 55 268 133 72 12 63 58 334 351 260 205 163 157 145 140 148 155 161 159 161 168 165 176 181
4 3 2 4 5 4 1 357 354 351 350 349 343 336 327 319 311 297 289 297 302 311 325 354 5 359 18 340 234 224 275 311 316 308 305 310 256 274 260 224 219 213 201 189 205 222 222 228 63 244 253 95 111 143 132 133 115 101 22 93 110 84 58 352 329 88 86 45 1 72 108 277 297 269 175 153 148 141 140 152 156 163 162 164 172 170 181 183
5 3 2 3 4 3 358 354 350 347 348 347 341 335 326 318 308 289 274 282 298 300 319 7 1 2 80 266 255 214 286 290 290 284 284 265 217 239 272 212 209 217 211 208 219 292 223 233 248 267 281 104 125 131 126 139 133 100 1 47 99 100 105 324 319 97 97 20 344 48 142 228 261 172 155 154 149 147 152 160 159 164 167 168 175 176 181 190
4 4 3 3 3 360 356 351 347 347 347 343 342 337 330 325 307 278 260 267 275 259 299 18 16 13 31 293 278 288 293 292 290 288 288 252 210 205 237 193 195 209 210 216 224 208 201 230 224 286 40 116 140 137 121 119 41 49 70 3 355 94 116 248 312 52 100 109 4 32 145 214 227 170 163 156 153 156 160 163 166 168 171 173 178 179 182 197
2 4 4 3 3 358 352 349 346 347 346 344 347 346 343 352 346 234 217 246 255 219 210 49 37 55 91 337 329 334 299 301 309 301 285 243 215 197 186 176 175 191 209 223 225 234 252 263 193 162 109 127 153 139 95 56 10 352 66 85 335 107 127 164 118 9 89 118 58 34 154 176 182 167 159 156 159 160 162 168 174 173 177 178 179 182 181 189
1 3 2 3 2 356 350 348 346 348 348 348 354 358 5 30 68 156 196 209 241 212 199 137 30 30 13 301 333 343 311 314 320 299 258 233 211 189 142 147 145 159 202 216 203 224 240 137 161 146 93 113 183 135 88 49 292 313 63 82 292 117 124 143 114 85 132 130 88 61 119 214 185 157 153 161 162 160 168 176 181 182 185 184 182 181 177 180
359 360 0 1 0 354 349 347 347 349 349 350 358 10 29 45 87 102 132 130 172 197 232 267 10 52 310 310 325 299 300 313 328 306 224 206 202 203 182 106 108 113 69 87 163 202 106 26 54 109 92 104 198 163 123 205 197 185 161 125 149 144 121 135 129 168 148 126 120 113 112 16 63 150 153 166 164 170 181 181 185 188 190 192 188 182 176 182
356 357 357 359 359 352 346 347 347 347 349 354 358 20 46 38 76 91 110 113 41 8 312 278 87 79 257 281 292 296 306 313 315 276 187 173 184 196 212 68 81 84 56 48 351 314 109 60 65 133 155 182 199 173 123 220 173 151 144 122 143 148 119 130 102 108 145 116 135 166 147 130 151 152 157 168 169 181 188 180 183 191 200 201 196 189 179 185
353 353 354 355 356 349 343 345 345 345 353 1 358 22 49 17 24 0 329 167 212 211 241 244 162 227 271 275 299 318 327 331 310 247 164 165 158 144 66 23 47 47 69 133 261 323 107 128 199 185 186 202 199 155 66 62 119 116 95 99 122 117 92 76 105 133 206 60 132 162 129 148 168 156 156 155 169 190 187 185 191 195 206 203 202 199 184 192
349 350 350 352 353 347 342 341 343 344 355 4 9 49 91 6 7 327 321 296 246 211 230 246 192 242 266 269 298 343 0 356 347 340 152 163 139 123 356 11 62 33 325 193 200 4 80 168 228 209 209 216 192 132 36 63 99 106 103 115 95 69 107 76 116 152 201 346 107 117 129 166 203 162 147 135 171 198 193 192 199 200 209 209 207 205 193 186
347 347 346 347 350 347 339 338 340 345 357 5 27 90 159 337 318 258 287 325 280 223 217 256 263 267 268 265 266 266 73 12 329 323 172 143 78 119 307 48 97 169 310 26 43 0 10 238 239 219 223 229 120 24 333 57 98 97 98 124 119 122 117 72 94 137 348 39 128 140 147 179 250 259 266 163 178 207 205 199 200 198 205 213 210 207 197 174
344 343 343 343 347 345 338 335 336 343 358 0 31 111 99 3 353 230 175 347 290 284 191 222 237 250 280 277 222 163 107 149 297 305 192 141 58 153 126 80 109 150 14 63 124 150 319 258 239 211 213 198 122 224 263 184 116 109 122 135 158 186 163 101 183 151 44 46 112 130 136 221 292 302 286 246 202 249 235 211 206 200 202 210 212 207 194 180
341 340 340 339 342 345 337 332 331 345 352 351 32 92 7 358 1 180 170 26 299 300 243 212 211 206 257 291 154 146 146 188 181 262 186 133 89 132 134 126 113 93 263 152 145 174 234 242 166 131 185 170 158 207 206 200 222 164 166 160 173 194 178 93 149 141 55 26 53 107 85 303 229 221 252 258 257 268 259 218 209 211 212 211 214 213 200 189
340 337 337 337 339 342 336 330 328 343 342 341 103 20 354 350 352 157 149 36 333 300 284 245 272 223 238 155 157 168 116 224 216 212 177 145 132 116 93 166 116 179 234 169 148 217 263 243 143 125 190 161 173 212 190 188 226 283 210 190 182 184 149 105 135 136 94 246 246 143 137 267 211 208 227 224 233 238 231 217 213 210 212 207 205 212 205 192
338 334 334 336 334 337 338 333 330 335 335 335 17 337 341 345 348 157 128 42 354 299 319 0 34 310 292 95 171 145 61 314 246 193 165 162 149 116 99 257 61 204 205 165 185 230 270 252 157 153 181 167 198 226 193 177 166 300 229 175 164 162 132 133 149 143 155 196 233 188 181 263 232 219 219 201 211 228 222 220 219 206 201 203 201 203 199 190
337 332 332 333 331 336 337 306 320 328 328 308 313 320 334 344 2 155 99 32 353 294 306 294 354 29 308 251 121 105 76 288 290 63 175 172 150 78 100 237 318 218 194 122 346 245 201 253 144 175 164 161 201 232 203 172 149 257 231 153 151 155 145 152 152 127 129 118 46 196 159 354 276 235 212 191 203 228 229 227 224 207 200 204 202 199 196 190
336 330 328 330 330 331 326 311 318 320 287 293 303 319 334 345 136 137 78 57 329 305 249 282 285 288 305 340 103 125 243 290 53 331 298 144 140 59 73 224 188 200 214 126 194 265 215 171 201 191 161 178 211 206 179 162 148 252 192 131 139 133 121 125 114 81 80 75 39 215 174 190 275 269 201 185 201 226 228 223 219 208 200 203 203 198 196 192
335 328 324 325 325 324 322 315 311 305 297 299 312 326 336 15 134 75 69 95 322 303 241 318 312 283 335 26 8 343 310 344 134 272 338 101 152 63 135 209 166 190 249 139 202 253 242 211 194 159 155 210 222 182 164 159 153 118 99 88 80 76 70 64 56 43 59 64 212 197 189 212 270 266 174 171 203 225 225 218 216 212 201 202 204 197 193 191
336 325 319 320 319 318 318 310 307 314 309 309 319 328 346 108 85 57 52 31 287 266 262 335 309 312 68 50 327 325 265 249 254 322 28 85 326 29 135 186 110 152 284 10 230 250 280 229 168 155 187 199 160 95 147 148 135 112 96 84 70 58 43 41 39 41 50 295 237 182 187 205 302 257 184 180 206 216 213 205 208 216 210 202 201 196 190 187
335 322 313 312 309 307 308 306 312 319 313 314 323 334 75 84 53 86 74 308 258 292 331 301 287 339 106 156 288 309 295 289 313 84 101 26 9 23 39 294 48 53 359 356 280 286 323 47 178 234 206 141 93 56 51 127 127 111 103 111 91 53 6 7 12 38 91 258 267 184 178 181 257 258 204 212 232 224 207 198 201 208 211 204 198 195 190 185
332 319 305 300 297 288 280 291 306 313 311 317 331 17 99 33 27 97 277 323 324 294 307 268 278 317 168 157 247 249 157 303 313 122 152 107 73 179 188 188 188 16 347 303 299 329 315 228 246 287 174 130 106 79 49 88 108 104 119 124 100 73 26 3 323 337 200 242 260 161 156 178 242 256 256 255 260 246 213 204 203 202 202 201 197 192 186 183
329 316 300 291 287 284 288 299 307 310 313 322 356 59 79 74 32 250 268 311 281 262 267 266 281 162 129 76 279 252 148 251 281 86 131 101 97 257 270 208 180 131 237 231 305 352 324 292 302 334 154 146 127 125 139 177 156 145 145 138 121 115 101 180 241 274 247 271 279 152 156 200 267 273 274 261 251 236 214 207 206 200 196 194 193 187 182 182
328 314 298 288 284 289 299 307 310 309 315 339 50 62 61 78 258 267 269 262 257 288 323 302 317 7 67 157 259 240 88 293 276 87 44 38 48 329 319 298 209 136 142 175 212 95 63 312 286 216 201 188 156 164 168 157 156 179 174 140 143 154 153 178 200 190 187 294 46 133 162 201 209 268 290 277 274 254 213 201 198 195 193 187 184 182 179 183
330 311 299 289 286 296 303 309 314 310 317 19 64 61 77 145 258 261 247 255 277 309 315 348 21 27 15 309 294 177 141 305 29 66 45 63 108 261 306 302 285 128 119 125 244 207 114 242 257 264 221 182 191 196 148 132 140 221 232 104 163 186 148 138 173 158 136 111 107 158 215 223 205 272 334 344 337 328 211 187 174 177 184 180 180 181 179 184
333 314 298 283 290 305 308 310 311 300 342 63 61 51 137 208 229 177 218 251 317 301 320 3 30 36 352 320 329 357 54 20 41 54 31 57 142 246 258 279 282 140 146 158 214 314 38 274 276 322 334 203 189 170 151 145 149 157 144 178 222 190 120 114 135 79 93 128 211 208 252 303 288 306 349 6 12 8 3 170 162 167 173 177 185 185 182 183
340 332 307 292 322 329 306 305 260 196 63 79 76 48 214 219 192 181 229 289 305 320 52 38 17 21 343 323 316 327 352 20 48 65 31 355 346 310 297 279 268 188 177 157 162 218 112 281 294 0 354 285 226 131 137 167 135 132 179 210 196 83 83 101 103 29 51 193 263 232 235 308 343 251 337 349 360 359 350 338 158 162 170 182 191 189 185 182
334 339 358 22 24 14 349 156 153 126 70 73 55 274 208 209 207 203 253 316 303 35 74 86 323 13 32 5 303 310 352 39 16 55 82 23 0 264 317 274 245 330 338 119 93 31 83 324 296 313 286 298 344 91 102 331 350 138 169 179 122 114 211 81 113 130 103 207 279 287 268 285 70 318 330 337 338 337 330 313 189 171 179 188 194 192 187 181
337 6 32 38 21 15 112 152 143 80 59 61 308 269 213 237 248 225 228 284 39 78 72 222 261 28 24 77 272 297 357 95 102 77 110 88 36 199 74 9 299 353 9 88 110 73 55 44 291 297 307 319 1 66 136 305 335 24 89 106 79 131 171 156 135 152 148 175 242 303 318 209 129 325 327 328 327 327 316 291 233 192 189 188 191 190 186 183
17 38 158 342 8 14 159 148 76 60 64 204 209 222 260 260 268 259 226 191 169 118 121 199 176 41 332 355 238 278 18 77 107 92 86 70 68 263 263 87 323 334 2 45 80 114 46 60 309 310 340 26 13 326 185 182 57 27 28 250 242 76 126 148 118 106 132 155 184 212 287 272 12 336 327 327 329 331 316 276 238 219 197 186 188 185 179 184
47 41 216 301 1 124 153 101 33 79 106 262 209 225 275 275 284 298 281 168 173 233 158 149 144 102 352 11 348 298 35 46 46 89 72 29 85 244 256 124 185 290 8 30 33 41 44 72 46 317 3 66 221 258 233 203 165 134 142 241 192 152 121 127 236 304 100 126 163 164 205 273 354 353 333 332 341 351 343 299 226 9 78 130 115 151 168 173
64 60 205 318 348 166 131 51 327 122 126 242 234 225 259 296 268 288 312 46 116 265 88 96 113 107 109 179 326 6 72 42 9 60 101 353 135 201 289 347 345 154 93 65 344 347 113 97 71 308 310 223 249 272 285 265 122 105 97 26 63 133 115 124 191 239 95 65 126 120 128 226 5 1 350 350 3 16 12 20 57 47 68 105 105 92 102 127
94 275 220 15 10 164 111 23 311 16 291 245 275 245 220 280 268 268 323 338 0 0 43 50 65 91 84 187 164 56 70 62 18 18 172 287 293 251 302 325 327 110 83 81 266 351 77 74 37 323 302 304 292 304 314 330 78 69 16 10 21 302 167 147 184 181 124 43 93 91 18 249 11 2 353 357 13 32 30 32 53 59 67 103 125 105 74 78
171 262 242 355 11 154 135 28 299 329 295 292 329 298 267 230 223 218 251 265 267 91 84 60 222 132 88 108 99 79 71 89 46 357 52 112 316 310 325 331 346 92 63 158 173 107 75 74 59 47 2 342 336 345 347 355 34 60 331 340 339 314 288 158 173 82 87 337 122 117 217 257 2 13 11 8 19 39 40 37 50 58 65 80 95 88 78 79
330 272 252 321 3 82 140 172 141 164 287 321 318 290 295 269 231 201 163 223 192 140 127 57 283 88 67 59 62 41 19 94 100 357 18 39 295 314 341 342 1 63 73 132 129 105 92 88 97 101 90 267 266 307 302 309 335 353 335 340 347 347 345 175 150 86 120 211 80 102 176 209 43 31 24 10 15 40 47 44 48 52 64 73 76 84 94 104
23 4 300 324 1 49 82 108 93 109 269 340 308 279 238 214 280 268 135 103 326 119 94 38 327 57 48 45 54 25 2 29 80 69 34 316 289 294 324 339 9 61 88 99 87 83 90 34 52 122 135 185 213 246 262 267 29 355 339 346 357 359 348 95 114 139 171 148 63 19 173 107 58 39 30 6 4 31 48 47 46 49 58 64 63 59 58 74
65 6 356 345 342 18 33 32 57 68 197 137 214 281 244 220 297 318 126 118 268 97 74 37 18 69 82 60 80 53 0 13 30 46 15 294 282 290 312 344 15 22 72 93 54 76 99 51 316 118 126 185 213 246 286 66 83 34 1 5 5 5 14 54 79 163 153 121 104 248 162 99 65 50 36 354 353 28 49 47 44 49 61 69 65 54 51 36
36 342 166 82 272 249 54 358 5 350 304 198 198 286 306 295 257 201 158 28 12 51 84 39 357 56 176 165 116 93 7 31 20 357 330 309 313 331 342 3 2 354 29 62 25 92 108 119 248 132 97 98 57 4 357 74 91 57 37 30 15 15 31 50 52 314 100 112 145 158 126 101 82 60 18 345 6 44 54 48 44 41 53 69 70 58 75 78
18 21 311 5 266 211 217 283 324 350 316 243 230 330 354 264 241 224 192 58 8 2 91 124 306 305 169 153 116 108 169 122 61 303 247 302 332 359 15 0 332 356 47 58 26 79 99 134 230 155 76 50 32 35 38 75 81 59 41 36 29 30 38 47 52 60 83 99 113 115 106 91 75 16 329 350 37 53 43 32 33 29 35 56 63 41 38 56
19 339 317 4 350 265 249 302 19 41 344 342 314 325 330 233 253 282 297 121 136 328 75 139 193 166 136 130 108 121 187 164 140 172 174 137 349 311 125 209 262 348 27 58 42 48 81 134 235 82 74 19 347 60 70 62 77 67 39 28 32 35 34 32 32 44 76 97 107 106 101 94 67 293 322 45 47 36 33 30 32 35 39 49 55 45 33 28
335 244 308 46 333 311 299 333 78 99 14 359 314 310 310 262 276 327 299 202 166 182 165 156 163 131 73 81 102 147 199 170 155 180 173 159 180 195 207 202 185 4 6 33 28 21 75 115 19 65 89 280 305 14 7 13 67 64 32 16 19 32 46 36 23 14 40 104 114 105 100 111 222 264 66 61 43 35 31 22 21 29 38 46 48 43 36 29
356 299 356 83 277 323 356 348 30 100 219 250 227 276 277 268 297 334 275 271 191 185 179 161 155 122 77 100 146 193 202 182 184 197 172 158 148 118 279 237 169 146 131 124 59 35 103 125 123 101 122 254 304 9 354 358 36 23 334 325 350 101 117 77 47 30 20 86 128 114 122 134 139 67 67 50 35 36 29 16 15 14 25 41 44 39 35 33